TimeMST,TemperatureF,Dew PointF,Humidity,Sea Level PressureIn,VisibilityMPH,Wind Direction,Wind SpeedMPH,Gust SpeedMPH,PrecipitationIn,Events,Conditions,WindDirDegrees,DateUTC
12:53 AM,23.0,15.1,72,30.35,10.0,SW,8.1,-,N/A,,Clear,220,2013-11-07 07:53:00
1:53 AM,28.0,19.0,69,30.34,10.0,SW,11.5,-,N/A,,Clear,230,2013-11-07 08:53:00
2:53 AM,30.0,19.9,66,30.32,10.0,SW,8.1,24.2,N/A,,Clear,220,2013-11-07 09:53:00
3:53 AM,30.9,21.0,67,30.32,10.0,SW,10.4,-,N/A,,Clear,230,2013-11-07 10:53:00
4:53 AM,32.0,23.0,69,30.34,10.0,SW,15.0,-,N/A,,Clear,220,2013-11-07 11:53:00
5:53 AM,32.0,23.0,69,30.38,10.0,SW,11.5,-,N/A,,Clear,230,2013-11-07 12:53:00
6:53 AM,32.0,24.1,73,30.38,10.0,SW,9.2,-,N/A,,Clear,220,2013-11-07 13:53:00
7:53 AM,37.9,26.1,62,30.37,10.0,SW,16.1,-,N/A,,Clear,220,2013-11-07 14:53:00
8:53 AM,43.0,27.0,53,30.35,10.0,SW,13.8,-,N/A,,Clear,220,2013-11-07 15:53:00
9:53 AM,45.0,27.0,49,30.33,10.0,SW,18.4,25.3,N/A,,Clear,220,2013-11-07 16:53:00
10:53 AM,46.9,27.0,46,30.31,10.0,SW,17.3,28.8,N/A,,Scattered Clouds,230,2013-11-07 17:53:00
11:53 AM,48.9,26.1,41,30.28,10.0,SW,26.5,32.2,N/A,,Mostly Cloudy,220,2013-11-07 18:53:00
12:53 PM,48.9,26.1,41,30.22,10.0,South,23.0,27.6,N/A,,Overcast,190,2013-11-07 19:53:00
1:53 PM,48.0,26.1,42,30.17,10.0,SW,13.8,32.2,N/A,,Mostly Cloudy,220,2013-11-07 20:53:00
2:53 PM,48.9,26.1,41,30.11,10.0,SSW,18.4,28.8,N/A,,Clear,210,2013-11-07 21:53:00
3:53 PM,48.0,27.0,44,30.07,10.0,SSW,19.6,-,N/A,,Clear,210,2013-11-07 22:53:00
4:53 PM,46.9,24.1,41,30.05,10.0,SW,21.9,29.9,N/A,,Clear,220,2013-11-07 23:53:00
5:53 PM,46.0,25.0,44,30.03,10.0,SW,23.0,35.7,N/A,,Clear,220,2013-11-08 00:53:00
6:53 PM,46.0,24.1,42,30.02,10.0,SW,20.7,32.2,N/A,,Clear,220,2013-11-08 01:53:00
7:53 PM,45.0,24.1,44,29.95,10.0,SW,25.3,34.5,N/A,,Clear,220,2013-11-08 02:53:00
8:53 PM,46.9,24.1,41,29.88,10.0,SSW,31.1,36.8,N/A,,Clear,210,2013-11-08 03:53:00
9:53 PM,46.0,24.1,42,29.87,10.0,SW,24.2,38.0,N/A,,Clear,220,2013-11-08 04:53:00
10:53 PM,46.0,23.0,40,29.82,10.0,SSW,27.6,33.4,N/A,,Clear,210,2013-11-08 05:53:00
11:53 PM,46.0,23.0,40,29.77,10.0,SW,27.6,35.7,N/A,,Clear,220,2013-11-08 06:53:00